OPS 4682 DEB, 38395

Orbit data source: Space-Track

OPS 4682 DEB, 38395 is space debris in LEO originally from a launch on Sat, 03 Apr 1965 UTC launched from the Air Force Western Test Range (AFWTR). Debris objects in space refer to the collection of defunct objects orbiting the Earth. Examples of debris include non-operational satellites, rocket bodies, and fragments generated from explosions, collisions, or faulty payload assembly.

Loading next visibility...
Identifier
38395, 1965-027CY
Orbit
LEO
Country
Flag of USUS
Related business
Manufacturer
Unknown
Mission
Spacecraft
Bus & Motor
Unknown
Mass
Unknown
Launch date (UTC)
1965-04-03 (61 years ago)
Launch vehicle
Unknown
Launch site
Air Force Western Test Range (AFWTR)
Object type
Payload
Rocket body
Debris
Shape & HBR
Unknown shape, 0.1 m
Radar Cross Section
Small (<0.1 m²)

Expand to show TLE details & history
Last TLE update: 4 days ago

TLE from 4 days ago
0 OPS 4682 DEB
1 38395U 65027CY  26101.73772409  .00000619  00000-0  20734-2 0  9991
2 38395  90.2615  16.7528 0028733 145.2307 215.0699 12.98451829 86361
Epoch: 2026-04-11T17:42Z
TLE epoch observation values (Epoch: 2026-04-11T17:42:19.361Z)
Latitude
-0.00003°
Longitude
-88.7806°
Altitude
1,289.046 km
Speed
7.203 km/s
True Right ascension
01h 07m 00s
True Declination
0° 00' 00"
Sunlit
Object was in daylight at epoch
Visualization orbit readout
Latitude
Unknown
Longitude
Unknown
Altitude
Unknown
Speed
Unknown
Apparent Right ascension
Unknown
Apparent Declination
Unknown
Sunlit
N/A
Visualization observer readout
Local Sidereal Time
19:25:48
Azimuth
Unknown
Elevation
Unknown
Doppler factor
Unknown
Orbital elements
Apogee altitude
1,287.25 km
Perigee altitude
1,243.326 km
Semi-major axis
7,643.425 km
Eccentricity
0.00287
Inclination
90.2615°
RAAN
16.7528°
Arg. of periapsis
145.2307°
True anomaly
214.88127°
Mean anomaly
215.0699°
Eccentric anomaly
214.97553°
Mean motion
3.24796 °/min
Orbital period
110.84 mins
BSTAR
0.0020734
Loading maneuver chart data...
Computing Atmospheric mass density...
Loading historical data...
Loading historical data...
Loading historical data...
Loading historical data...
Loading historical data...
Loading historical data...
Loading historical data...

Documentation

Showing up to 5 results
|